Flag for Germany Weather past 2 weeks in Nuremberg, Bavaria, Germany

Now
72 °F

Sunny.


Feels Like: 74 °F
Forecast: 60 / 89 °F
Wind: 6 mph from Northwest

Location: Nuernberg

Current Time: Aug 28, 2015 at 9:12:01 PM

Latest Report: Aug 28, 2015 at 8:20 PM


Visibility: 10 mi

Pressure: 30.15 "Hg

Humidity: 73%

Dew point: 63 °F

Location of NurembergLocation

Historic Weather in Nuremberg — Graph

°F

Nuremberg temperature yesterday

Maximum temperature yesterday: 88 °F (at 5:20 PM)
Minimum temperature yesterday: 54 °F (at 3:20 AM)
Average temperature yesterday: 71 °F

Past Weeks' High & Low Weather Summary

 TemperatureHumidityPressure
High90 °F (Aug 13, 7:20 PM)100% (Aug 14, 11:20 PM)30.27 "Hg (Aug 14, 11:20 PM)
Low46 °F (Aug 22, 5:50 AM)26% (Aug 26, 3:20 PM)29.71 "Hg (Aug 24, 3:20 PM)
Average65 °F70%29.99 "Hg
* Reported Aug 13 7:20 PM — Aug 28 7:50 PM, Nuremberg, Weather by CustomWeather, © 2015

Note: Actual official high and low records may vary slightly from our data, if they occured in-between our weather recording intervals... More about our weather records

Advertising

Nuremberg weather history for previous 24 hours

 ConditionsComfort  
Time TempWeatherWind HumidityBarometerVisibility
7:50 PM
Fri, Aug 28
73 °FPassing clouds.6 mph69%30.12 "HgN/A
7:20 PM73 °FPassing clouds.6 mph69%30.12 "HgN/A
6:50 PM75 °FPartly sunny.12 mph61%30.12 "HgN/A
6:20 PM75 °FPartly sunny.14 mph65%30.12 "HgN/A
5:50 PM75 °FPartly sunny.13 mph61%30.12 "HgN/A
5:20 PM75 °FPartly sunny.12 mph61%30.12 "HgN/A
4:50 PM75 °FPartly sunny.13 mph61%30.12 "HgN/A
4:20 PM75 °FBroken clouds.14 mph65%30.12 "HgN/A
3:50 PM75 °FBroken clouds.12 mph61%30.09 "HgN/A
3:20 PM75 °FPartly sunny.10 mph65%30.09 "HgN/A
2:50 PM73 °FBroken clouds.9 mph74%30.12 "HgN/A
2:20 PM73 °FBroken clouds.16 mph69%30.09 "HgN/A
1:50 PM75 °FBroken clouds.13 mph65%30.09 "HgN/A
1:20 PM77 °FLight rain. Partly sunny.6 mph61%30.09 "HgN/A
12:50 PM77 °FPartly sunny.2 mph65%30.07 "HgN/A
12:20 PM75 °FPartly sunny.2 mph65%30.07 "HgN/A
11:50 AM75 °FPartly sunny.3 mph69%30.07 "HgN/A
11:20 AM72 °FPartly sunny.5 mph73%30.07 "HgN/A
10:50 AM72 °FBroken clouds.6 mph73%30.07 "HgN/A
10:20 AM70 °FBroken clouds.6 mph78%30.07 "HgN/A
9:50 AM70 °FPartly sunny.6 mph78%30.07 "HgN/A
9:20 AM70 °FPartly sunny.8 mph78%30.04 "HgN/A
8:50 AM68 °FPartly sunny.3 mph83%30.04 "HgN/A
8:20 AM68 °FPartly sunny.2 mph83%30.01 "HgN/A
7:50 AM66 °FLight rain. Partly sunny.3 mph88%30.01 "HgN/A
7:20 AM68 °FLight rain. Partly cloudy.2 mph83%30.01 "HgN/A
6:50 AM66 °FLight rain. Partly cloudy.3 mph88%30.01 "HgN/A
6:20 AM66 °FLight rain. Passing clouds.2 mph88%30.01 "HgN/A
5:50 AM68 °FLight rain. Passing clouds.2 mph78%30.01 "HgN/A
5:20 AM68 °FPassing clouds.3 mph78%30.01 "HgN/A
4:50 AM68 °FPassing clouds.3 mph78%30.01 "HgN/A
4:20 AM68 °FPassing clouds.5 mph78%29.98 "HgN/A
3:50 AM70 °FPassing clouds.8 mph73%29.98 "HgN/A
3:20 AM70 °FPassing clouds.8 mph69%29.95 "HgN/A
2:50 AM70 °FClear.6 mph64%29.92 "Hg10 mi
2:20 AM68 °FClear.2 mph64%29.92 "Hg10 mi
1:50 AM68 °FPassing clouds.3 mph60%29.92 "HgN/A
1:20 AM72 °FClear.5 mph53%29.89 "Hg10 mi
12:50 AM70 °FPassing clouds.5 mph57%29.89 "HgN/A
12:20 AM73 °FClear.5 mph50%29.89 "Hg10 mi
11:50 PM
Thu, Aug 27
73 °FClear.6 mph50%29.89 "Hg10 mi
11:20 PM75 °FClear.6 mph44%29.86 "Hg10 mi
10:50 PM75 °FPassing clouds.6 mph44%29.86 "HgN/A
10:20 PM77 °FClear.6 mph42%29.86 "Hg10 mi
9:50 PM77 °FClear.6 mph42%29.86 "Hg10 mi
9:20 PM77 °FClear.6 mph44%29.86 "Hg10 mi
Weather by CustomWeather, © 2015

See weather overviewHow to use our weather pages